RH
3 3 4 3 3 3 3 3 3 3 2 2 2 1 1 4 20 24 21 22 21 17 16 16 25 35 40 40 40 43 35 35 31 32 30 29 27 26 23 21 22 22 23 22 20
6 6 6 6 5 5 5 4 4 3 3 3 3 2 2 1 2 9 20 24 22 18 15 16 28 36 42 46 45 49 48 41 38 41 38 35 32 34 28 30 28 27 27 25 23
8 7 6 7 7 6 6 6 6 6 5 5 4 3 3 2 1 4 11 25 30 24 22 28 40 52 52 51 45 45 43 41 46 47 41 37 34 35 34 32 32 39 32 32 29
4 5 5 6 7 7 7 7 8 8 8 7 7 5 4 3 5 9 8 16 22 20 24 30 50 57 51 47 32 41 41 37 44 42 36 36 39 39 38 33 38 40 41 32 32
5 6 8 9 11 13 14 14 14 14 12 11 10 8 6 3 3 3 4 16 22 20 28 35 49 53 50 59 61 60 39 47 50 44 36 38 40 42 40 37 41 44 41 41 41
8 10 10 12 12 14 15 16 17 16 16 15 14 12 9 6 6 4 5 9 21 24 28 28 40 69 69 63 64 55 55 46 49 44 38 34 32 40 25 36 40 49 46 46 49
9 12 15 18 18 18 18 18 16 16 16 17 16 14 12 9 5 4 3 8 13 21 29 41 42 57 75 71 68 66 61 59 50 33 36 45 33 27 31 44 42 41 44 40 42
16 18 20 22 21 21 21 20 18 16 16 17 17 16 13 11 8 5 4 6 14 19 43 35 68 72 78 74 74 71 71 60 34 50 70 67 46 54 43 41 41 38 38 36 36
22 20 19 17 16 15 15 15 15 14 14 17 18 17 14 13 11 8 8 11 21 37 50 72 71 69 87 86 81 76 62 69 67 68 65 62 55 54 51 48 45 42 40 39 40
13 10 8 6 5 4 4 5 6 6 7 10 17 30 15 15 16 15 13 24 26 54 74 74 86 84 75 81 84 67 75 75 62 65 66 62 55 51 52 51 52 50 48 48 48
3 3 4 5 6 7 6 4 10 46 63 44 47 39 44 27 15 12 15 44 66 76 91 80 69 57 50 73 68 75 79 65 55 56 62 64 58 53 51 56 59 54 51 49 51
6 7 8 10 12 19 22 29 69 100 64 90 99 79 52 75 48 34 29 56 71 92 90 94 82 49 76 75 78 78 77 71 64 60 60 58 53 51 49 54 52 49 53 52 53
10 10 10 18 24 32 36 72 83 88 80 49 39 27 21 36 46 53 46 52 88 90 94 82 69 71 74 73 71 70 72 74 66 62 56 58 54 49 45 45 48 45 44 47 50
12 12 13 22 33 35 44 40 82 89 83 59 68 57 64 67 85 60 96 82 95 92 76 69 68 80 71 69 70 70 76 73 66 64 65 61 74 49 46 53 54 49 48 43 47
14 13 15 26 32 42 51 48 86 95 97 62 67 79 98 99 86 60 100 99 87 77 73 79 75 77 74 63 62 64 67 66 66 67 69 64 65 58 57 55 52 45 36 37 40
15 15 17 24 42 54 81 88 99 97 94 70 63 70 92 94 82 97 100 97 87 94 84 91 78 68 62 63 63 63 64 75 75 74 88 68 62 64 64 58 58 45 28 24 21
18 16 23 29 45 68 92 95 95 98 60 60 70 78 86 87 98 83 92 94 96 97 96 86 95 84 76 71 74 82 81 93 97 95 93 81 77 63 64 60 49 29 32 26 29
21 19 28 45 69 75 81 94 96 80 92 67 94 83 81 92 87 97 85 88 96 97 96 79 79 80 64 76 71 69 75 88 96 96 90 64 68 61 55 56 56 51 32 44 36
21 25 38 73 88 82 83 95 93 96 98 97 78 75 93 88 96 98 90 96 98 97 89 82 67 76 64 71 70 73 78 76 78 65 73 55 56 62 60 50 31 29 54 54 51
24 30 51 71 88 100 87 96 83 96 79 76 85 82 90 88 93 78 86 97 96 86 84 79 92 88 79 73 71 76 78 77 68 98 89 51 47 51 42 36 39 39 53 46 55
35 28 48 68 74 84 94 92 96 92 88 77 86 80 89 97 85 94 97 89 73 88 88 79 83 92 85 83 78 72 78 78 90 93 97 90 61 35 32 26 25 40 43 37 44
33 42 55 69 81 97 90 98 93 80 68 73 78 76 82 96 83 79 95 74 82 95 97 95 98 90 94 78 76 76 76 84 88 96 90 89 73 60 50 29 25 25 23 44 60
39 49 55 90 84 87 91 94 99 68 74 73 84 87 95 90 89 95 96 98 84 92 96 95 95 94 99 88 86 80 71 77 86 95 92 87 71 61 69 57 50 48 72 75 76
57 71 53 74 80 96 97 90 96 92 80 84 83 89 82 81 90 85 94 92 91 98 94 91 90 93 98 98 96 84 80 78 87 97 78 79 66 70 84 89 78 81 80 79 68
67 87 82 71 70 88 99 93 83 83 77 74 77 86 82 90 97 89 94 94 97 98 95 93 94 91 71 71 86 89 90 99 94 79 89 76 82 87 87 82 80 84 84 79 23
76 90 74 61 70 90 93 97 97 95 80 83 86 83 94 97 96 99 91 91 94 91 92 86 98 96 71 79 89 93 89 94 100 100 100 100 85 82 80 85 91 86 81 31 87
61 78 75 64 70 82 91 96 90 96 94 96 93 92 95 94 93 87 86 93 98 89 88 92 93 94 94 98 92 79 78 82 90 98 95 98 92 92 92 93 95 95 50 78 96
Wind_Speed
23 24 26 27 28 28 28 28 29 31 31 29 28 28 28 28 27 27 26 25 21 19 20 18 18 17 16 17 18 19 22 20 18 15 16 21 20 22 21 20 22 24 26 24 20
28 30 31 31 31 32 33 33 33 33 32 33 33 30 29 29 27 28 27 26 25 23 22 20 18 17 16 16 18 20 24 22 16 19 16 16 22 17 19 18 21 24 21 24 23
34 36 36 37 37 37 36 36 37 36 36 34 33 33 31 29 29 30 23 21 21 20 18 16 15 15 15 16 18 19 27 18 21 23 24 25 25 21 21 19 15 14 22 23 24
40 40 40 41 40 40 40 41 40 40 38 36 34 32 29 30 23 23 21 20 19 17 17 16 14 16 16 19 18 23 24 21 23 29 27 28 27 28 27 20 20 21 27 27 21
45 45 45 45 43 41 39 39 38 37 37 36 34 32 29 28 27 33 23 22 23 22 20 18 18 15 19 9 13 21 21 18 20 25 26 25 26 27 28 23 25 26 28 28 27
46 46 46 46 45 43 41 39 38 36 34 34 34 33 31 33 29 28 22 21 22 22 24 23 20 17 20 19 20 15 16 20 23 24 25 27 26 27 26 25 24 26 27 26 27
48 47 47 47 46 45 43 40 38 37 35 33 31 33 33 29 30 28 25 23 23 20 21 22 22 20 16 18 23 24 27 26 28 26 27 23 26 27 18 25 24 23 21 25 22
48 48 48 48 48 48 46 44 42 40 39 37 32 33 36 32 26 29 27 25 22 22 21 21 17 19 21 21 19 20 22 24 21 11 20 21 26 14 15 14 15 16 19 21 20
50 50 51 50 51 50 50 48 45 44 41 40 35 33 35 32 25 22 21 19 19 20 20 17 18 18 20 20 19 13 17 12 12 11 17 17 7 12 15 16 17 17 18 21 26
51 51 50 49 48 48 48 48 47 43 38 40 39 31 29 24 16 16 18 17 18 18 18 17 16 17 19 20 12 11 20 13 15 14 17 17 19 18 20 23 21 21 23 26 29
45 43 42 39 37 35 34 34 25 19 18 33 19 18 17 22 24 19 18 18 18 18 17 13 16 20 15 16 14 17 17 13 8 11 15 18 25 23 19 22 25 27 29 32 32
38 37 37 36 33 29 27 23 12 20 30 28 30 34 27 19 26 21 20 22 22 22 13 16 21 13 11 16 15 15 16 16 13 19 20 23 30 24 22 27 30 29 32 34 33
34 35 35 33 30 27 23 14 17 22 29 33 31 42 34 30 30 22 26 21 18 19 19 21 6 8 17 18 19 20 17 14 13 16 18 20 28 8 13 18 20 21 22 21 20
34 33 33 32 28 28 27 22 18 18 18 30 17 15 25 27 34 26 26 18 26 21 16 18 18 16 16 16 11 12 13 14 14 10 4 4 8 19 20 18 20 18 19 16 15
34 34 34 30 34 31 29 20 13 14 6 6 13 12 8 29 15 22 24 24 19 18 21 12 17 20 17 10 11 11 10 12 11 10 13 18 9 9 11 15 17 11 9 7 8
33 34 34 32 24 30 17 11 11 7 6 3 7 8 15 26 9 24 29 30 20 18 21 13 11 11 11 13 15 14 11 8 6 4 5 15 18 5 12 10 14 12 10 8 9
32 32 34 32 28 25 15 10 7 7 5 6 7 7 16 18 13 13 24 27 17 11 17 19 14 16 17 16 14 13 6 3 2 3 5 8 11 17 11 10 13 11 9 9 13
31 32 31 24 20 15 8 8 5 4 6 15 8 6 15 14 20 15 17 21 23 15 7 14 7 16 8 14 5 11 13 3 4 2 2 9 8 6 13 8 13 12 7 12 18
28 28 25 21 22 11 8 5 5 4 8 17 11 6 12 19 12 18 17 14 14 16 9 8 6 14 7 15 14 9 9 11 4 9 2 7 7 8 12 9 7 7 7 13 19
31 27 21 23 18 9 10 10 9 8 13 15 13 9 11 14 8 11 10 5 7 11 17 8 4 5 10 8 16 12 11 4 5 1 3 7 14 7 6 9 13 8 6 15 21
28 27 20 22 18 15 10 13 9 9 13 8 9 13 15 9 5 7 4 5 6 9 14 15 7 5 8 9 11 16 15 8 6 5 3 3 0 1 4 8 14 12 13 25 28
27 27 17 18 14 15 9 11 15 10 13 12 10 13 17 11 3 4 6 6 4 7 9 11 7 5 7 10 12 13 8 14 5 5 5 1 7 11 8 12 15 18 25 30 29
27 22 18 11 22 21 17 9 10 10 9 10 7 6 7 6 2 1 4 4 6 10 8 8 5 3 3 11 15 16 17 15 19 11 8 2 3 2 4 9 14 21 27 28 26
25 21 22 10 23 19 19 11 8 7 9 9 10 9 9 6 4 3 5 5 7 11 9 6 8 7 2 2 3 5 12 15 19 8 8 17 15 14 19 23 26 24 32 32 24
20 17 19 18 19 16 14 11 10 12 8 13 7 8 4 2 5 6 3 7 8 10 10 8 8 10 16 15 15 19 20 16 24 26 11 16 16 17 19 24 32 36 24 21 19
17 18 18 18 16 20 16 12 8 11 11 9 5 8 3 2 5 5 9 7 8 9 9 9 4 10 15 6 11 18 22 23 25 27 30 30 36 28 26 20 17 19 17 17 16
16 16 17 18 13 18 19 17 10 9 7 10 8 6 5 6 6 6 7 9 11 8 6 5 3 4 3 6 13 14 8 15 20 25 21 22 21 22 21 21 19 19 16 14 12
Wind_Direction
334 334 333 331 329 327 324 322 322 324 325 323 319 314 308 297 290 291 292 291 291 277 279 274 268 260 255 249 243 239 235 243 252 244 257 257 248 247 253 251 244 245 249 257 260
326 325 323 322 319 319 318 317 314 313 312 314 317 315 310 305 296 284 282 286 285 280 274 268 262 257 256 252 245 235 239 244 254 248 236 254 242 250 247 244 252 251 250 252 253
318 316 313 312 310 309 309 309 308 308 308 308 308 311 312 307 301 291 289 282 277 271 263 258 253 258 250 251 251 250 246 246 237 252 239 244 261 254 258 250 254 267 265 248 250
309 308 305 304 303 303 301 301 301 301 303 304 306 306 306 305 299 291 288 283 275 268 259 254 244 243 250 250 262 255 255 257 245 254 254 254 256 259 257 261 245 231 247 261 259
308 305 304 303 302 300 299 297 296 296 297 298 300 301 302 295 298 283 286 276 269 265 256 249 245 247 248 250 253 250 260 248 252 256 268 262 262 265 262 259 253 249 251 263 264
306 304 302 300 298 297 296 295 294 294 293 293 295 295 295 293 291 290 281 274 268 261 254 247 244 225 232 230 233 241 248 254 249 261 265 266 263 260 265 260 258 258 262 257 262
304 304 302 300 298 296 293 291 289 289 288 288 288 290 287 291 290 288 281 269 266 259 247 239 237 235 241 249 249 249 260 265 263 267 262 265 264 265 266 259 255 256 255 263 257
307 304 301 298 296 294 291 287 284 283 283 282 282 282 281 289 284 281 272 265 258 253 244 250 237 239 244 243 249 257 270 273 274 252 233 252 265 267 264 260 261 252 257 259 262
307 305 302 300 297 294 291 287 283 281 279 278 278 277 280 283 282 263 260 259 251 245 243 241 242 245 250 251 259 255 249 261 256 239 244 249 242 245 255 264 264 262 264 268 267
309 307 304 302 300 297 294 291 286 283 278 272 271 270 275 272 256 268 266 249 247 241 240 242 245 247 248 236 222 230 242 258 253 253 253 267 269 244 269 273 270 263 261 260 262
317 316 316 316 315 314 307 300 303 304 270 267 268 257 245 252 269 258 260 234 227 233 232 250 242 241 251 250 257 249 282 276 239 289 266 275 279 279 274 260 255 261 261 262 258
328 328 325 321 321 321 322 318 318 296 276 240 245 243 238 253 263 253 241 220 220 229 227 216 244 259 217 240 227 240 257 267 269 262 273 278 282 284 272 261 261 265 264 267 268
330 330 327 324 327 329 333 315 293 289 287 283 266 259 244 243 248 243 239 229 227 226 216 223 231 222 223 236 239 247 255 255 262 268 275 292 293 274 265 266 262 262 256 255 256
332 331 328 319 316 325 327 309 285 286 289 282 275 258 231 224 234 218 241 233 216 226 219 231 235 243 242 237 238 251 240 239 249 276 262 309 285 282 285 272 267 262 262 260 256
333 330 330 325 312 316 315 305 290 295 265 328 188 241 195 194 233 213 220 214 212 210 202 210 217 227 242 240 213 224 225 241 261 259 284 271 239 285 255 255 267 253 249 237 227
331 330 327 322 318 320 315 289 284 270 263 286 257 255 178 195 198 180 200 204 198 208 203 207 204 209 206 222 223 236 247 265 274 265 263 259 209 279 228 250 254 265 240 242 253
331 330 329 322 321 327 297 261 253 231 305 299 289 212 190 205 209 224 197 192 197 189 207 221 232 246 238 236 233 229 199 150 209 188 229 156 193 229 252 247 259 254 270 270 292
333 333 332 332 331 338 336 280 257 275 289 274 309 212 196 192 217 180 191 200 201 199 165 185 183 222 224 201 227 224 201 217 252 190 115 175 227 210 253 270 237 256 259 302 313
337 337 337 343 333 307 329 284 285 339 1 337 355 277 216 220 217 193 185 190 211 219 201 218 168 196 209 202 188 174 206 215 281 299 250 227 222 239 247 244 210 208 286 318 330
336 342 347 350 347 321 294 288 291 331 320 313 322 317 319 260 227 178 174 202 189 198 211 206 128 199 211 206 191 178 179 175 197 245 255 254 220 193 225 226 235 231 311 336 333
336 345 351 352 342 327 295 281 285 317 313 328 316 316 299 314 185 162 151 211 268 221 209 219 201 181 209 210 217 223 214 203 209 228 202 314 248 55 267 249 230 242 291 320 326
341 349 352 352 11 339 307 314 315 312 314 312 308 293 299 337 196 177 160 217 217 189 202 211 196 209 205 220 209 200 228 224 208 193 226 277 277 288 281 252 259 275 297 309 315
341 344 348 360 7 357 349 314 291 328 331 334 316 279 306 333 71 182 185 190 199 200 199 190 222 193 254 240 230 224 219 214 225 236 225 227 256 246 311 291 288 286 299 308 314
340 339 348 7 360 356 349 354 353 336 329 343 330 336 311 300 237 245 228 214 206 210 212 208 217 217 213 65 281 219 213 222 228 214 228 226 248 283 290 293 297 298 301 306 309
340 337 338 333 355 359 352 357 3 337 326 326 330 342 297 269 230 214 242 186 204 232 235 238 258 257 256 268 251 255 257 229 226 235 246 247 239 248 263 276 285 290 296 303 311
335 331 322 331 335 343 352 8 346 345 339 330 335 338 308 181 210 200 240 258 249 245 247 242 235 282 302 287 264 256 251 250 250 252 256 263 273 280 280 278 287 299 304 307 315
324 318 319 329 327 339 335 330 325 335 333 6 333 337 260 249 264 272 264 259 262 270 256 245 253 305 279 308 310 295 281 253 248 251 264 265 283 281 284 278 283 292 301 310 320